Location: Lombard
(41.8800°N, 88.0080°W)
Time: 23:10:19
(UTC-05:00)

Tiros 1 - Pass Details

Date: 29 January 2023
Orbit: 628 x 662 km, 48.4° (Epoch: 20 March)

Event Time Altitude Azimuth Distance (km) Brightness Sun altitude
Rises 09:11:47 0° 288° (WNW) 2,963 10.0 18.1°
Reaches altitude 10° 09:14:40 10° 271° (W) 2,055 9.4 18.4°
Maximum altitude 09:17:59 19° 226° (SW) 1,543 9.2 18.9°
Drops below altitude 10° 09:21:19 10° 181° (S) 2,060 10.6 19.3°
Sets 09:24:14 0° 164° (SSE) 2,972 11.7 19.6°
